Date,TemperatureHighF,TemperatureAvgF,TemperatureLowF,DewpointHighF,DewpointAvgF,DewpointLowF,HumidityHigh,HumidityAvg,HumidityLow,PressureMaxIn,PressureMinIn,WindSpeedMaxMPH,WindSpeedAvgMPH,GustSpeedMaxMPH,PrecipitationSumIn
2012-1-1,45.3,36.6,30.4,42.7,31.6,19.9,98,83,61,29.91,29.43,53,13,53,0.04
2012-1-2,30.6,26.1,19.8,22.7,14.7,3.3,81,62,48,30.05,29.76,46,16,51,0.00
2012-1-3,22.3,19.2,16.0,11.1,5.0,2.5,74,54,45,30.20,30.05,35,13,39,0.00
2012-1-4,35.8,26.9,18.9,24.1,14.6,7.6,74,60,47,30.08,29.79,26,8,26,0.00
2012-1-5,41.5,32.6,25.3,30.8,24.2,19.9,87,72,53,29.93,29.61,20,6,238,0.00
2012-1-6,54.1,43.0,35.1,34.0,31.0,27.5,79,64,41,29.67,29.58,24,7,26,0.00
2012-1-7,45.5,39.5,33.4,34.2,26.4,20.2,73,60,46,30.11,29.61,34,12,34,0.00
2012-1-8,39.4,31.7,25.0,25.9,18.7,13.2,80,59,42,30.29,30.11,15,4,16,0.00
2012-1-9,41.0,32.9,24.8,27.5,20.1,15.4,83,60,42,30.20,29.85,8,5,12,0.00
2012-1-10,48.9,37.4,31.1,33.3,26.2,22.8,89,66,40,29.96,29.82,6,6,6,0.00
2012-1-11,47.8,36.9,27.9,39.9,29.7,24.7,93,76,49,29.82,29.43,6,2,6,0.12
2012-1-12,39.0,35.8,23.0,38.5,34.7,20.2,98,96,88,29.43,29.26,0,0,0,0.16
2012-1-13,27.5,22.8,19.2,24.5,17.1,13.0,89,79,68,29.88,29.31,0,0,0,0.00
2012-1-14,22.8,20.7,18.0,18.0,15.1,10.8,82,78,72,30.17,29.88,0,0,0,0.00
2012-1-15,27.7,19.7,14.2,12.6,9.8,7.1,73,65,49,30.35,30.17,0,0,0,0.08
2012-1-16,42.4,31.8,19.8,41.0,24.6,12.2,98,75,54,30.23,29.73,0,0,0,0.04
2012-1-17,50.5,39.3,24.3,50.0,36.9,12.3,98,92,58,29.91,29.28,0,0,0,0.75
2012-1-18,27.7,22.2,18.7,15.6,8.5,5.2,68,55,47,30.17,29.91,0,0,0,0.00
2012-1-19,26.6,18.8,5.4,23.6,7.9,-10.1,89,63,46,30.05,29.67,0,0,0,0.00
2012-1-20,16.0,9.9,1.8,7.8,-3.8,-13.4,74,53,48,30.20,29.99,0,0,0,0.00
2012-1-21,30.2,17.1,9.0,12.6,6.8,2.7,78,65,45,30.23,29.99,0,0,0,0.00
2012-1-22,34.2,24.5,12.6,33.1,20.2,4.0,96,84,68,30.17,29.76,0,0,0,0.00
2012-1-23,47.8,38.6,31.1,47.3,36.1,21.4,98,91,67,29.76,29.37,0,0,0,0.12
2012-1-24,32.2,30.9,28.6,23.7,21.4,18.0,74,67,62,30.26,29.76,0,0,0,0.00
2012-1-25,30.9,28.9,27.1,21.4,19.9,18.0,75,69,63,30.29,30.08,0,0,0,0.00
2012-1-26,34.5,31.9,27.9,31.8,28.0,21.1,95,86,75,30.11,29.46,0,0,0,0.20
2012-1-27,38.8,33.7,29.5,34.7,28.3,19.5,98,82,50,29.88,29.43,0,0,0,0.16
2012-1-28,35.8,30.7,25.9,32.7,21.4,11.3,95,70,44,29.96,29.67,0,0,0,0.00
2012-1-29,31.3,26.5,20.3,26.9,18.5,8.1,91,72,55,30.11,29.79,0,0,0,0.00
2012-1-30,35.1,24.0,13.8,29.4,16.6,6.1,81,73,61,30.17,29.85,0,0,0,0.00
2012-1-31,54.9,46.7,35.1,43.8,35.4,29.2,83,66,47,29.85,29.76,34,6,34,0.08
2012-2-1,48.7,42.5,37.0,45.3,33.9,28.2,91,72,53,30.05,29.76,32,10,32,0.00
2012-2-2,38.3,34.4,27.5,31.1,26.7,21.3,87,74,59,30.32,30.05,22,4,22,0.00
2012-2-3,38.7,32.5,26.1,35.3,27.3,23.2,94,81,67,30.41,30.32,21,3,21,0.00
2012-2-4,46.6,34.8,26.4,27.4,22.8,17.0,76,63,42,30.32,30.08,15,1,15,0.00
2012-2-5,46.8,33.3,24.3,30.7,23.3,20.2,92,69,41,30.17,30.08,21,5,21,0.00
2012-2-6,51.1,36.6,27.9,31.5,25.0,18.9,91,66,36,30.11,29.93,34,11,34,0.00
2012-2-7,34.9,31.7,24.4,27.7,22.8,11.8,78,70,58,30.29,30.05,23,7,27,0.00
2012-2-8,36.9,26.8,19.9,14.9,11.9,8.9,76,54,40,30.29,30.14,22,7,22,0.00
2012-2-9,40.6,29.2,21.6,19.9,15.3,10.9,76,57,40,30.14,30.02,27,7,27,0.00
2012-2-10,31.6,26.9,15.8,27.1,21.6,12.0,90,80,69,30.02,29.76,39,8,39,0.00
2012-2-11,18.1,13.6,8.6,12.0,5.5,-2.9,86,71,45,30.11,29.82,51,18,51,0.00
2012-2-12,30.2,22.5,15.3,11.8,8.6,3.9,66,55,43,30.08,30.02,39,14,39,0.00
2012-2-13,39.4,29.1,21.9,16.5,11.8,8.7,63,49,36,30.05,29.88,30,9,30,0.00
2012-2-14,32.7,30.2,27.1,28.4,23.7,10.6,87,77,45,29.96,29.79,17,4,17,0.00
2012-2-15,37.9,33.9,31.3,30.0,27.1,25.3,84,76,63,30.11,29.96,22,5,22,0.12
2012-2-16,35.1,34.6,34.3,32.0,31.1,30.0,89,87,84,29.99,29.93,12,0,12,0.24
2012-2-17,39.9,37.1,36.0,22.7,19.5,16.9,57,49,40,30.02,29.91,25,3,25,0.20
2012-2-18,37.6,32.4,22.6,28.1,18.8,9.1,76,58,43,30.14,29.85,46,12,46,0.20
2012-2-19,35.6,25.7,20.3,16.2,12.9,9.0,77,59,43,30.14,30.05,25,5,25,0.20
2012-2-20,41.0,27.1,17.2,24.2,16.4,10.2,86,65,44,30.29,30.08,21,3,21,0.20
2012-2-21,39.2,33.3,27.0,38.4,28.6,17.6,97,83,67,30.08,29.55,38,5,38,0.20
2012-2-22,39.6,35.2,32.0,32.2,28.9,22.3,91,78,51,29.64,29.37,26,6,26,0.20
2012-2-23,41.2,36.0,32.2,31.1,27.6,23.6,89,73,51,29.55,29.37,18,4,18,0.00
2012-2-24,34.0,32.2,29.8,33.0,29.0,22.3,97,88,72,29.72,29.20,38,7,38,0.08
2012-2-25,31.8,29.2,27.1,25.3,20.4,16.2,88,70,54,30.28,29.72,46,13,46,0.00
2012-2-26,37.2,29.0,19.2,21.4,18.0,12.9,80,64,47,30.40,30.11,26,5,26,0.08
2012-2-27,43.2,33.9,28.6,25.0,19.8,16.4,74,57,39,30.43,30.05,49,12,49,0.00
2012-2-28,44.2,32.4,21.7,27.6,20.4,15.8,83,62,42,30.49,30.14,20,4,20,0.00
2012-2-29,42.1,36.5,32.2,41.6,33.2,20.0,98,89,56,30.14,29.46,34,3,34,0.51
2012-3-1,42.6,37.2,33.6,35.5,30.2,26.8,96,77,54,29.87,29.54,33,7,33,0.00
2012-3-2,47.3,39.4,32.9,46.6,33.3,28.2,98,79,57,29.87,29.13,47,6,62,0.39
2012-3-3,37.8,32.9,28.2,29.2,22.1,16.6,81,64,54,29.69,29.22,60,15,60,0.00
2012-3-4,33.6,28.5,23.4,22.4,16.5,13.8,78,61,47,29.90,29.69,26,8,26,0.00
2012-3-5,30.7,24.9,20.1,15.4,11.4,7.6,74,57,41,30.37,29.87,30,7,30,0.00
2012-3-6,55.8,40.2,25.3,31.6,23.1,11.4,66,51,39,30.37,30.05,38,10,38,0.00
2012-3-7,65.5,55.7,46.4,41.1,32.9,24.7,51,42,35,30.14,29.90,51,14,51,0.00
2012-3-8,59.2,45.8,30.2,52.3,35.4,16.6,96,68,49,30.11,29.78,37,13,37,0.12
2012-3-9,36.3,31.4,23.2,24.4,14.7,4.0,80,51,37,30.49,30.08,46,15,46,0.00
2012-3-10,46.4,33.2,18.7,23.7,14.1,2.6,57,46,38,30.52,30.22,36,9,36,0.00
2012-3-11,66.7,49.3,33.1,33.2,25.9,20.1,65,42,26,30.31,30.19,20,6,25,0.00
2012-3-12,59.4,51.0,43.2,57.2,43.3,24.8,96,76,43,30.19,29.78,29,5,29,0.87
2012-3-13,66.4,54.4,46.6,52.8,39.4,21.9,98,64,27,30.11,29.84,40,8,40,0.79
2012-3-14,75.2,61.2,41.5,48.6,37.6,19.0,61,42,33,30.11,30.02,25,6,25,0.00
2012-3-15,74.3,63.2,56.3,62.6,54.5,47.9,89,74,55,30.05,29.96,28,6,28,0.04
2012-3-16,75.4,62.3,54.1,67.1,55.9,50.1,97,81,50,30.14,30.02,20,3,20,0.00
2012-3-17,77.0,62.1,51.6,63.9,52.4,49.1,98,75,40,30.19,30.11,26,3,26,0.00
2012-3-18,74.3,61.2,50.5,60.3,52.2,48.1,95,74,48,30.14,30.05,24,4,24,0.00
2012-3-19,77.7,62.8,51.6,67.2,54.5,50.2,98,77,46,30.14,30.05,20,2,20,0.00
2012-3-20,82.2,66.9,54.0,62.5,52.8,49.3,93,65,33,30.16,30.08,25,3,25,0.00
2012-3-21,85.5,72.3,54.5,61.6,51.1,44.3,89,51,30,30.22,30.11,21,4,21,0.00
2012-3-22,87.6,66.1,54.1,61.9,53.8,48.5,93,70,29,30.16,30.08,25,2,25,0.67
2012-3-23,74.7,62.4,56.1,59.8,54.7,49.7,96,78,46,30.11,29.90,12,2,12,0.12
2012-3-24,57.6,54.3,50.9,56.8,52.8,49.3,98,95,89,29.90,29.81,0,0,0,0.12
2012-3-25,70.9,58.6,49.3,54.0,45.2,25.4,98,67,34,30.08,29.87,35,8,35,0.00
2012-3-26,49.5,39.5,31.1,26.2,20.0,10.9,63,46,37,30.40,30.08,33,10,33,0.00
2012-3-27,50.9,38.9,26.1,30.8,21.0,10.8,61,49,38,30.40,29.87,29,6,29,0.00
2012-3-28,65.7,55.1,44.4,48.6,35.5,26.1,74,48,36,29.96,29.69,56,12,56,0.00
2012-3-29,44.6,40.2,34.5,27.4,25.3,22.9,62,55,49,30.14,29.96,21,11,21,0.00
2012-3-30,40.6,35.0,30.0,34.8,29.3,21.8,96,80,62,30.11,29.78,8,8,8,0.55
2012-3-31,43.3,37.9,33.6,34.7,31.4,27.8,97,79,56,29.99,29.87,8,7,8,0.00
2012-4-1,53.8,44.2,36.1,42.2,36.0,27.3,84,73,61,29.93,29.69,0,0,0,0.00
2012-4-2,41.5,40.7,39.4,34.2,33.5,32.3,76,76,75,29.87,29.87,0,0,0,0.00
2012-4-3,56.5,54.9,52.9,44.9,44.2,43.2,70,67,65,29.90,29.87,0,0,0,0.00
2012-4-4,61.0,50.3,38.7,45.2,31.3,19.0,85,52,29,29.96,29.87,9,0,9,0.00
2012-4-5,39.9,39.9,39.9,19.2,19.2,19.2,43,43,43,29.93,29.93,0,0,0,0.00
2012-4-6,56.1,32.8,31.8,24.3,19.9,19.1,61,59,29,30.22,30.16,16,7,16,0.00
2012-4-8,60.6,52.7,46.9,40.7,28.7,20.3,72,41,25,30.11,29.99,49,11,49,0.00
2012-4-9,60.8,49.0,36.9,35.9,27.7,16.8,81,47,27,30.02,29.81,46,9,46,0.00
2012-4-10,44.4,39.8,35.6,29.0,22.9,18.5,74,51,35,29.99,29.84,35,8,35,0.00
2012-4-11,52.0,42.3,34.0,29.9,26.8,20.1,82,56,37,30.19,29.99,35,6,35,0.00
2012-4-12,56.8,44.7,30.4,40.5,29.1,22.2,92,59,33,30.22,30.14,26,4,26,0.00
2012-4-13,62.2,48.8,33.1,39.8,30.9,25.3,84,54,31,30.25,30.14,20,4,20,0.00
2012-4-14,63.1,57.1,48.6,55.1,49.1,40.1,88,75,63,30.08,29.90,26,5,26,0.04
2012-4-15,75.2,64.1,56.1,67.6,56.8,51.8,98,80,49,29.87,29.78,26,7,26,1.10
2012-4-16,68.7,61.5,46.8,59.9,46.5,30.5,88,59,40,30.11,29.66,70,10,70,0.04
2012-4-17,56.3,46.6,36.3,32.4,28.7,26.1,71,51,36,30.34,30.11,26,9,26,0.00
2012-4-18,61.3,47.3,33.3,36.8,31.3,24.4,81,56,38,30.34,30.02,25,4,25,0.04
2012-4-19,71.8,59.3,45.5,47.3,43.0,35.1,75,56,41,30.02,29.87,22,6,22,0.00
2012-4-20,72.9,56.0,37.4,49.6,44.0,36.1,96,68,38,29.90,29.66,38,9,38,0.24
2012-4-21,52.9,42.3,36.5,36.4,30.2,21.6,96,66,39,30.05,29.87,31,10,31,0.08
2012-4-22,53.2,42.7,34.3,31.8,25.2,18.0,77,52,35,30.02,29.93,47,9,47,0.08
2012-4-23,55.9,46.7,37.9,23.6,20.0,14.5,53,36,25,29.93,29.60,61,18,61,0.00
2012-4-24,60.1,49.2,39.0,25.5,20.8,14.3,41,33,25,29.69,29.52,54,18,54,0.00
2012-4-25,64.6,51.5,35.4,45.5,31.2,23.1,85,48,33,29.84,29.69,25,5,25,0.00
2012-4-26,56.7,49.0,38.7,50.2,38.7,18.6,94,70,40,30.05,29.63,46,10,46,0.00
2012-4-27,54.5,42.7,30.9,23.6,20.4,17.7,63,42,28,30.22,30.05,31,8,31,0.00
2012-4-28,46.2,41.3,36.7,28.9,23.5,19.3,52,49,41,30.25,30.16,17,2,17,0.00
2012-4-29,63.0,45.8,27.7,28.3,21.5,15.6,77,42,24,30.34,30.19,19,2,19,0.00
2012-4-30,52.7,47.5,41.4,49.8,37.7,15.4,95,72,30,30.22,29.90,13,1,13,0.35
2012-5-1,60.1,53.3,49.8,56.1,50.7,48.1,98,91,73,30.08,29.90,15,2,16,0.00
2012-5-2,82.0,64.1,51.6,65.6,54.6,47.6,90,74,43,29.99,29.84,26,4,26,0.00
2012-5-3,87.6,73.6,61.0,67.4,59.0,53.3,92,65,33,30.02,29.87,44,7,44,0.28
2012-5-4,74.7,65.6,58.1,68.4,61.6,53.5,98,88,64,30.05,29.93,22,3,22,0.12
2012-5-5,72.0,61.2,55.0,53.6,49.1,44.5,86,66,43,30.11,29.99,18,3,18,0.00
2012-5-6,69.6,59.8,48.7,47.0,38.5,33.5,75,48,29,30.14,29.99,12,2,12,0.00
2012-5-7,61.9,55.8,49.3,60.4,51.7,40.4,95,86,54,30.08,29.81,8,0,10,0.51
2012-5-8,71.8,61.4,53.4,58.6,48.5,37.1,98,67,36,29.84,29.78,26,6,26,0.00
2012-5-9,65.5,55.3,49.8,47.8,42.4,37.5,88,63,40,29.87,29.78,36,6,36,0.08
2012-5-10,63.5,53.0,40.6,46.7,34.2,28.3,91,53,29,29.99,29.84,32,8,32,0.04
2012-5-11,73.6,60.1,45.0,37.9,35.3,31.0,67,42,26,30.16,29.99,22,6,22,0.47
2012-5-12,69.1,61.4,55.2,58.0,45.7,34.2,93,58,42,30.22,30.16,20,4,20,0.47
2012-5-13,68.4,58.7,48.7,57.7,49.8,42.6,96,75,47,30.25,30.11,15,1,15,0.20
2012-5-14,75.6,62.3,48.7,58.2,42.6,31.8,94,54,25,30.14,30.02,17,3,17,0.00
2012-5-15,80.8,67.3,53.8,46.1,39.1,30.2,50,36,26,30.02,29.84,33,3,33,0.00
2012-5-16,67.3,58.6,49.5,52.2,38.5,30.1,82,50,33,30.14,29.87,42,8,42,0.00
2012-5-17,68.7,54.6,39.0,43.1,35.5,30.9,82,51,29,30.22,30.14,19,2,19,0.00
2012-5-18,75.9,59.6,44.2,48.8,38.6,33.4,86,51,24,30.19,30.08,16,1,16,0.00
2012-5-19,84.4,67.3,49.6,50.3,43.8,35.3,75,46,24,30.16,30.11,17,2,17,0.00
2012-5-20,86.0,71.2,55.2,57.3,48.3,43.5,79,48,28,30.19,30.02,17,2,17,0.00
2012-5-21,77.0,66.5,57.9,58.3,54.5,46.0,92,66,48,30.05,29.99,29,7,29,0.04
2012-5-22,69.6,60.2,52.9,54.6,47.8,43.5,87,66,43,30.02,29.93,24,6,24,0.00
2012-5-23,77.5,62.0,46.9,58.2,46.9,43.2,93,62,31,29.99,29.87,17,2,17,0.00
2012-5-24,82.8,69.9,55.4,63.7,54.8,46.6,88,61,41,29.96,29.81,24,4,24,0.00
2012-5-25,86.0,75.8,66.0,60.0,53.6,44.4,69,48,29,30.11,29.84,26,7,26,0.00
2012-5-26,71.2,65.7,59.9,61.2,52.0,43.2,87,63,43,30.28,30.11,19,2,19,0.12
2012-5-27,80.8,68.8,58.3,59.8,54.5,49.2,76,62,43,30.16,29.96,30,2,30,0.00
2012-5-28,90.7,78.1,65.1,67.4,60.0,54.3,89,58,31,29.96,29.75,23,4,23,0.00
2012-5-29,81.5,74.7,66.9,63.7,52.6,39.4,79,49,26,29.84,29.72,30,5,30,0.00
2012-5-30,72.1,63.2,53.6,47.4,42.5,38.9,71,48,33,29.93,29.81,30,6,30,0.00
2012-5-31,61.7,55.3,49.1,46.4,43.3,39.7,81,65,47,30.02,29.87,23,3,23,0.04
2012-6-1,57.9,52.0,47.8,57.4,50.5,43.3,98,95,81,29.90,29.54,25,4,25,0.47
2012-6-2,70.3,57.6,47.3,48.5,43.5,37.8,96,64,32,29.72,29.63,34,6,34,0.00
2012-6-3,77.5,66.4,58.5,51.2,45.5,40.1,73,49,30,29.81,29.69,36,8,36,0.00
2012-6-4,69.4,61.0,51.6,52.5,47.5,44.7,89,63,43,29.96,29.78,29,5,29,0.00
2012-6-5,66.7,59.4,52.7,50.9,44.9,40.5,84,61,40,30.05,29.93,21,4,21,0.00
2012-6-6,75.2,61.9,47.7,52.7,44.2,40.7,92,57,31,30.11,30.02,24,4,24,0.00
2012-6-7,80.2,67.4,55.0,52.3,46.8,41.9,83,52,30,30.11,30.02,26,6,26,0.00
2012-6-8,83.1,71.0,58.8,48.1,45.8,42.7,63,42,29,30.08,29.93,17,6,22,0.08
2012-6-9,87.1,76.4,66.7,51.0,47.8,43.1,49,37,28,29.99,29.90,23,4,23,0.00
2012-6-10,88.9,77.1,63.0,53.7,49.9,45.9,63,40,28,30.08,29.96,19,2,19,0.00
2012-6-11,73.6,69.6,66.0,69.1,62.2,50.6,92,78,49,30.02,29.90,22,2,22,0.04
2012-6-12,77.9,71.1,62.2,67.6,53.7,40.6,96,59,31,30.14,29.81,35,7,35,0.00
2012-6-13,72.1,60.5,47.8,42.5,39.7,35.5,70,48,32,30.22,30.11,17,3,18,0.00
2012-6-14,78.8,63.6,47.7,52.9,42.7,34.4,83,49,31,30.25,30.16,15,1,15,0.00
2012-6-15,84.7,70.5,55.8,61.6,50.5,40.1,85,53,29,30.19,30.16,15,1,15,0.00
2012-6-16,85.6,73.9,62.6,65.1,58.1,53.6,87,60,39,30.22,29.99,17,2,17,0.00
2012-6-17,76.8,71.9,65.8,70.8,63.1,53.6,93,74,60,29.99,29.84,16,1,16,0.35
2012-6-18,78.6,68.2,57.6,71.7,59.6,50.9,93,75,48,29.93,29.84,29,2,29,0.28
2012-6-19,92.3,81.1,70.3,67.6,62.8,59.3,87,56,36,30.05,29.90,22,5,22,0.00
2012-6-20,89.8,80.5,70.0,64.7,58.6,53.3,72,50,30,30.14,29.96,25,3,25,0.00
2012-6-21,89.8,76.7,66.2,70.4,61.0,56.2,87,61,39,30.02,29.84,31,5,31,0.16
2012-6-22,81.0,70.1,62.1,63.3,55.6,45.6,94,65,31,30.02,29.93,26,4,26,0.00
2012-6-23,80.4,69.1,57.9,62.0,52.4,45.6,92,59,31,30.08,30.02,17,1,17,0.00
2012-6-24,82.4,73.3,64.9,60.2,56.0,53.2,80,56,39,30.08,29.93,20,3,20,0.00
2012-6-25,73.2,66.2,58.1,57.6,45.9,37.8,74,51,32,30.08,29.96,29,7,29,0.00
2012-6-26,80.2,67.0,51.8,48.4,43.7,40.4,75,46,27,30.08,29.96,26,6,26,0.00
2012-6-27,86.4,73.6,59.2,53.8,46.6,43.3,69,41,25,30.05,29.84,29,3,29,0.00
2012-6-28,97.3,81.8,65.1,72.4,57.9,43.4,67,45,33,29.90,29.72,26,4,26,0.00
2012-6-29,88.7,79.1,70.9,69.5,60.5,49.2,88,56,28,29.90,29.81,26,4,26,0.00
2012-6-30,89.8,78.0,67.8,62.1,58.0,55.0,74,52,33,29.87,29.78,22,5,22,0.00
2012-7-1,90.9,77.7,63.5,63.5,56.5,49.6,84,51,30,30.02,29.87,25,4,25,0.00
2012-7-2,93.2,78.4,64.6,67.9,60.1,52.0,91,59,26,30.08,29.96,17,2,17,0.00
2012-7-3,83.7,73.4,69.8,74.0,67.8,61.1,95,83,62,29.99,29.84,29,2,29,0.79
2012-7-4,97.9,82.5,70.0,74.0,67.4,56.7,96,65,30,29.93,29.84,22,4,22,0.00
2012-7-5,84.2,77.2,67.5,75.3,68.0,62.8,91,74,55,30.02,29.87,53,3,53,0.39
2012-7-6,97.2,84.7,73.4,72.5,68.7,62.1,85,62,32,30.02,29.93,20,3,20,0.00
2012-7-7,95.4,84.4,71.8,73.4,69.2,61.9,86,62,42,30.02,29.93,30,6,30,0.00
2012-7-8,83.8,74.7,66.9,64.6,55.4,48.7,80,53,33,30.08,30.02,25,5,25,0.00
2012-7-9,83.1,71.4,60.4,61.3,56.9,53.8,87,62,41,30.11,30.02,16,2,16,0.00
2012-7-10,83.5,73.0,63.5,59.9,51.9,45.3,80,51,29,30.16,30.05,21,3,21,0.00
2012-7-11,82.9,71.1,57.9,60.7,49.8,43.6,89,51,29,30.22,30.14,19,2,19,0.00
2012-7-12,87.1,73.4,57.9,60.0,51.2,48.1,82,50,27,30.19,30.11,15,1,15,0.00
2012-7-13,90.1,77.1,64.9,65.6,57.5,51.6,81,54,29,30.16,30.11,26,2,26,0.00
2012-7-14,87.4,75.5,64.4,67.2,61.3,57.8,88,64,39,30.16,30.05,17,2,17,0.00
2012-7-15,91.2,80.4,70.9,69.3,64.2,55.8,89,62,31,30.08,29.96,25,4,25,0.00
2012-7-16,92.7,81.3,69.6,72.0,62.8,55.0,89,57,30,30.05,29.87,17,3,17,0.00
2012-7-17,99.0,86.6,76.8,69.1,61.7,56.3,69,46,26,29.90,29.78,26,6,26,0.00
2012-7-18,84.0,76.3,71.4,72.0,66.2,62.1,91,72,56,30.02,29.84,22,2,22,0.08
2012-7-19,75.6,69.1,64.8,68.2,63.8,59.2,95,84,63,30.02,29.96,25,1,25,0.24
2012-7-20,79.2,69.3,61.7,62.7,53.6,45.6,93,62,33,30.11,30.02,22,3,22,0.04
2012-7-21,87.6,72.2,57.6,63.0,54.0,49.9,91,57,30,30.14,30.05,31,2,31,0.00
2012-7-22,90.0,79.1,67.1,65.7,60.7,57.4,76,55,38,30.11,30.05,22,4,22,0.00
2012-7-23,95.0,82.2,71.4,69.7,63.5,59.1,83,56,34,30.08,29.84,35,6,35,0.00
2012-7-24,84.9,78.9,67.5,60.6,52.8,46.9,57,41,32,30.02,29.93,27,7,27,0.00
2012-7-25,87.6,71.3,57.2,67.2,52.4,46.5,75,53,32,30.02,29.66,26,4,26,0.00
2012-7-26,79.9,75.4,70.0,73.6,68.7,62.2,96,80,67,29.78,29.69,21,4,21,0.00
2012-7-27,79.9,69.4,64.4,70.5,65.7,57.8,95,89,58,29.96,29.75,48,1,48,0.67
2012-7-28,80.6,70.9,63.5,66.5,60.0,53.1,98,72,41,30.11,29.96,26,5,26,0.00
2012-7-29,83.5,70.7,58.1,62.9,53.0,47.5,91,58,30,30.14,30.05,17,2,17,0.00
2012-7-30,86.4,75.3,64.8,63.4,58.3,50.8,81,59,31,30.08,29.93,20,3,22,0.00
2012-7-31,83.7,74.1,64.8,66.7,61.9,58.6,93,68,45,29.99,29.84,31,4,31,0.00
2012-8-1,82.2,72.2,63.1,65.4,57.3,51.0,93,63,35,29.99,29.93,21,4,21,0.00
2012-8-2,88.0,75.3,63.0,65.3,58.7,54.1,81,59,32,29.96,29.87,17,2,17,0.00
2012-8-3,92.5,79.8,67.5,74.4,62.2,53.9,91,60,29,30.02,29.93,17,1,17,0.00
2012-8-4,88.3,78.1,68.5,71.0,65.8,59.6,87,67,47,30.02,29.84,25,3,25,0.00
2012-8-5,85.1,74.9,66.6,71.4,59.8,43.0,93,65,31,30.14,29.90,30,6,30,0.04
2012-8-6,82.2,69.4,55.6,55.8,48.3,43.3,84,51,29,30.19,30.05,17,3,17,0.00
2012-8-7,88.2,74.2,58.1,56.9,51.9,48.9,78,49,28,30.05,29.93,20,3,20,0.00
2012-8-8,85.5,75.0,68.2,65.1,56.0,47.3,86,55,31,30.02,29.96,25,4,25,0.00
2012-8-9,69.8,65.1,61.5,63.3,60.9,51.9,98,87,54,30.02,29.84,17,1,17,1.38
2012-8-10,71.6,64.6,60.1,68.8,62.4,58.3,98,93,70,29.84,29.66,26,3,26,0.28
2012-8-11,68.4,62.3,58.6,63.8,59.0,54.6,98,89,68,29.96,29.72,26,6,26,0.04
2012-8-12,78.8,67.5,59.2,61.7,54.9,49.7,93,67,40,30.05,29.96,25,4,25,0.00
2012-8-13,73.4,67.0,62.6,61.4,57.5,53.0,89,72,51,30.05,29.99,17,1,17,0.04
2012-8-14,74.5,66.0,61.2,65.8,59.2,50.5,97,81,44,29.99,29.90,17,2,17,0.39
2012-8-15,80.6,68.4,58.6,64.1,56.6,51.0,95,70,36,29.99,29.93,12,2,12,0.00
2012-8-16,78.6,70.0,62.6,66.7,60.9,56.2,95,74,48,29.99,29.78,21,4,21,0.00
2012-8-17,74.3,66.5,60.1,61.2,53.0,44.4,93,65,35,30.02,29.87,26,5,26,0.00
2012-8-18,73.9,62.4,50.0,51.4,43.9,39.7,85,54,31,30.05,29.96,13,2,13,0.00
2012-8-19,75.0,64.5,54.5,53.1,46.9,41.9,79,56,32,29.99,29.93,22,2,22,0.00
2012-8-20,75.6,64.8,55.8,58.7,49.0,42.0,93,61,33,30.02,29.96,22,3,22,0.00
2012-8-21,76.1,64.3,54.5,62.1,51.8,46.9,91,66,36,30.14,30.02,25,1,25,0.00
2012-8-22,80.1,67.5,56.3,63.9,51.5,45.1,95,62,31,30.16,30.11,17,2,17,0.00
2012-8-23,84.4,70.1,56.7,57.8,51.6,47.0,84,56,29,30.19,30.11,17,2,17,0.00
2012-8-24,87.4,73.0,60.8,69.5,57.3,50.7,93,63,29,30.16,30.08,17,2,17,0.00
2012-8-25,90.3,75.1,63.1,69.2,57.2,50.1,92,59,28,30.16,30.11,16,1,21,0.00
2012-8-26,88.7,74.9,64.2,66.2,59.9,54.8,91,62,37,30.16,30.05,17,2,17,0.00
2012-8-27,81.9,72.6,69.1,75.6,65.7,57.2,97,81,45,30.08,29.96,26,2,26,0.28
2012-8-28,78.3,68.9,61.5,59.7,54.3,48.8,90,62,37,30.14,30.02,26,6,31,0.00
2012-8-29,77.0,66.2,55.8,63.0,53.7,47.5,94,68,37,30.16,30.05,14,1,14,0.00
2012-8-30,82.9,70.1,59.5,58.8,54.5,49.1,89,62,32,30.14,30.02,26,4,26,0.00
2012-8-31,92.5,78.0,64.4,65.7,58.0,53.7,73,53,31,30.08,30.02,26,4,26,0.00
2012-9-1,82.9,74.5,66.9,62.1,52.8,48.9,66,48,34,30.16,30.05,11,1,11,0.00
2012-9-2,78.4,72.4,67.8,66.3,59.6,49.8,81,65,46,30.11,29.99,12,1,12,0.00
2012-9-3,88.5,75.2,64.2,67.8,62.6,56.0,81,66,42,30.02,29.93,13,1,13,0.00
2012-9-4,79.0,72.5,68.2,71.4,67.0,62.5,94,84,62,29.96,29.87,26,2,26,0.00
2012-9-5,77.4,70.8,65.1,72.9,66.0,63.1,96,85,67,29.93,29.81,24,2,24,0.04
2012-9-6,82.6,72.5,66.2,66.0,61.1,51.9,93,71,35,29.96,29.84,17,2,17,0.00
2012-9-7,79.2,69.4,60.4,62.1,57.7,52.0,89,68,41,29.96,29.72,22,4,22,0.04
2012-9-8,69.3,61.6,55.6,59.0,50.7,43.2,98,71,43,29.87,29.66,36,8,36,0.47
2012-9-9,70.3,59.7,51.1,53.8,44.4,38.1,90,60,34,30.11,29.87,23,4,23,0.00
2012-9-10,72.7,59.1,48.0,53.2,43.2,38.0,93,61,29,30.25,30.11,17,2,17,0.00
2012-9-11,77.9,65.0,53.2,51.8,47.8,44.9,81,57,33,30.25,30.16,25,4,25,0.00
2012-9-12,82.0,67.7,54.1,54.6,50.1,47.1,82,56,31,30.25,30.16,26,3,26,0.00
2012-9-13,81.5,70.2,62.1,59.7,53.3,46.3,80,58,30,30.28,30.19,27,4,27,0.00
2012-9-14,69.1,60.9,53.1,58.9,48.6,38.4,97,68,34,30.31,30.22,26,6,26,0.39
2012-9-15,70.5,58.7,47.7,50.3,42.6,39.1,84,58,34,30.34,30.19,17,4,17,0.00
2012-9-16,76.3,63.3,52.3,50.1,44.9,41.8,75,54,32,30.19,30.05,20,2,20,0.00
2012-9-17,66.9,59.1,53.6,58.4,47.1,43.0,77,65,49,30.05,29.72,16,2,16,0.00
2012-9-18,65.8,57.2,46.2,61.1,47.1,31.0,92,71,47,29.99,29.63,37,8,37,0.04
2012-9-19,64.9,53.1,40.6,43.6,34.9,32.0,84,53,33,30.14,29.99,26,4,26,0.04
2012-9-20,67.3,58.9,49.8,51.5,41.6,33.8,82,53,40,30.02,29.87,31,6,31,0.00
2012-9-21,69.1,57.6,49.3,48.9,40.7,34.7,88,56,32,29.96,29.81,30,4,30,0.16
2012-9-22,56.5,51.2,44.4,50.8,44.7,37.2,95,80,54,30.08,29.75,21,3,22,0.04
2012-9-23,57.6,48.5,42.6,45.8,37.7,30.2,93,69,38,30.22,30.08,22,4,22,0.00
2012-9-24,62.6,51.1,39.6,39.2,33.9,28.8,82,55,34,30.22,29.93,34,5,34,0.00
2012-9-25,67.6,56.9,45.9,51.9,41.0,29.7,84,56,40,29.99,29.87,22,4,22,0.00
2012-9-26,66.4,60.5,51.3,62.6,56.0,42.3,97,86,64,30.16,29.90,19,2,19,0.00
2012-9-27,64.2,54.5,47.7,44.4,40.2,37.4,85,60,40,30.25,30.16,17,2,17,0.00
2012-9-28,68.4,56.3,45.9,51.6,41.9,38.6,90,62,36,30.19,30.08,20,2,20,0.00
2012-9-29,71.2,56.4,45.1,50.6,41.8,35.8,95,63,32,30.11,29.96,21,3,21,0.00
2012-9-30,63.5,53.6,47.1,51.2,43.8,40.3,95,71,46,29.99,29.93,26,3,26,0.00
2012-10-1,67.8,53.3,41.4,53.6,42.4,38.8,97,70,40,29.96,29.87,12,1,12,0.00
2012-10-2,67.1,58.6,52.9,55.9,49.5,44.5,94,73,52,29.93,29.84,13,2,13,0.08
2012-10-3,66.4,60.9,58.3,61.4,54.1,48.2,94,79,65,30.08,29.93,21,2,21,0.00
2012-10-4,75.0,63.0,54.5,54.0,50.2,45.3,92,67,37,30.11,30.02,22,4,22,0.04
2012-10-5,62.6,52.9,43.7,57.5,45.9,38.1,92,78,53,30.08,29.96,22,4,22,0.24
2012-10-6,48.7,43.4,38.3,42.3,35.8,30.1,97,77,50,30.11,29.93,26,4,26,0.00
2012-10-7,47.3,42.4,37.4,36.0,33.0,28.8,85,70,49,30.14,30.08,19,3,19,0.04
2012-10-8,55.9,42.1,32.2,37.9,28.6,21.9,92,63,35,30.19,30.11,21,3,21,0.04
2012-10-9,62.1,47.5,35.2,37.3,31.1,23.1,79,55,36,30.14,29.84,36,6,36,0.00
2012-10-10,51.6,44.1,34.9,42.9,32.9,21.8,94,66,45,30.16,29.81,34,6,34,0.12
2012-10-11,61.7,46.0,31.8,36.6,29.5,23.1,84,56,33,30.19,30.02,36,7,36,0.04
2012-10-12,55.0,42.5,34.9,35.0,29.5,23.2,86,63,36,30.43,30.16,22,4,22,0.00
2012-10-13,59.7,42.6,31.5,59.0,38.8,25.4,98,87,66,30.40,29.90,15,1,15,0.91
2012-10-14,67.8,63.7,59.0,64.0,59.5,50.8,98,87,63,29.90,29.46,39,9,39,0.00
2012-10-15,58.8,49.1,45.0,51.6,41.2,37.1,84,74,63,29.93,29.49,34,8,34,0.00
2012-10-16,61.2,47.9,36.1,43.0,34.9,28.9,83,62,38,29.99,29.78,21,3,21,0.00
2012-10-17,73.9,59.1,48.7,54.2,46.6,41.1,93,68,33,29.81,29.57,46,6,46,0.35
2012-10-18,59.5,53.5,45.7,54.5,44.5,31.4,96,74,37,29.69,29.40,35,5,35,0.31
2012-10-19,56.1,49.3,44.6,44.5,39.5,34.0,90,70,47,29.69,29.54,31,6,31,0.12
2012-10-20,56.1,48.1,44.4,47.9,42.1,36.9,97,81,52,29.90,29.60,21,3,21,0.12
2012-10-21,63.9,49.3,39.4,48.6,38.9,34.6,96,71,39,30.11,29.90,19,3,19,0.00
2012-10-22,70.2,54.5,42.1,53.9,46.1,36.8,93,75,50,30.11,29.96,16,1,16,0.04
2012-10-23,66.2,60.8,57.6,63.8,58.3,52.4,97,92,83,30.02,29.93,15,1,15,0.39
2012-10-24,77.5,65.1,57.9,67.7,58.0,54.7,98,80,47,30.05,29.99,22,3,22,0.08
2012-10-25,77.5,64.9,53.1,58.8,52.1,46.8,94,67,39,30.02,29.87,36,7,36,0.00
2012-10-26,67.3,50.0,42.8,51.4,39.2,29.9,92,68,53,30.22,29.87,34,10,34,0.08
2012-10-27,55.8,44.7,38.1,36.2,30.6,26.0,77,59,37,30.22,30.14,31,10,31,0.00
2012-10-28,49.5,41.2,36.9,35.1,27.7,23.5,77,59,44,30.19,30.11,48,13,48,0.00
2012-10-29,41.9,40.5,37.4,31.6,27.1,22.8,74,59,49,30.11,29.69,65,22,65,0.00
2012-10-30,42.6,37.3,34.0,38.0,34.7,30.0,97,90,75,29.69,29.43,63,26,63,0.20
2012-10-31,41.4,38.2,35.4,38.8,35.7,33.9,96,91,81,29.66,29.49,40,17,40,0.00
2012-11-1,47.3,41.3,38.8,37.0,30.1,24.0,91,66,44,29.78,29.66,35,14,35,0.00
2012-11-2,40.6,38.9,35.4,28.8,25.2,22.1,76,58,50,30.05,29.78,34,13,34,0.00
2012-11-3,46.4,36.2,30.0,31.1,25.8,21.6,89,67,47,30.16,30.08,22,10,25,2.99
2012-11-4,39.7,32.5,27.3,25.4,21.9,19.2,82,66,50,30.19,30.14,26,5,26,0.00
2012-11-5,48.4,36.2,27.3,27.5,23.4,17.9,80,61,39,30.19,30.14,17,3,17,0.00
2012-11-6,47.1,35.2,27.5,28.7,23.4,19.7,78,63,43,30.16,29.99,17,2,17,0.00
2012-11-7,52.7,38.3,30.4,34.5,25.1,19.2,76,60,38,30.14,29.99,17,3,17,0.00
2012-11-8,53.2,36.8,27.7,34.2,25.8,22.1,89,67,39,30.22,30.14,17,3,17,0.00
2012-11-9,54.7,43.8,33.1,39.6,33.9,27.0,84,69,47,30.19,30.08,25,4,25,0.00
2012-11-10,62.6,51.1,43.2,50.9,44.2,39.4,93,78,54,30.14,30.02,17,2,17,0.00
2012-11-11,68.0,58.7,49.8,47.8,39.6,32.8,73,51,37,30.14,29.96,39,12,39,0.00
2012-11-12,59.7,45.2,32.9,53.1,37.1,19.6,95,76,37,30.22,29.90,35,10,35,0.43
2012-11-13,33.4,31.4,25.2,22.8,16.9,14.4,67,55,47,30.52,30.22,25,6,25,0.43
2012-11-14,42.3,30.6,21.6,26.7,20.1,15.5,82,66,47,30.58,30.40,17,1,17,0.00
2012-11-15,51.1,37.1,30.0,33.5,26.9,23.2,84,68,44,30.43,30.31,12,2,12,0.00
2012-11-16,58.3,39.0,27.1,35.4,27.7,23.2,89,67,37,30.49,30.34,17,4,17,0.00
2012-11-17,55.8,39.1,28.8,45.8,29.2,24.1,95,71,39,30.58,30.49,16,2,16,0.00
2012-11-18,58.3,42.6,33.8,50.5,34.8,26.5,97,76,40,30.55,30.40,13,1,13,0.00
2012-11-19,57.9,41.5,31.6,49.5,32.2,27.7,97,73,40,30.40,30.19,17,1,17,0.00
2012-11-20,57.9,45.7,39.0,43.8,37.6,29.5,89,74,47,30.19,30.08,11,0,11,0.04
2012-11-21,59.5,45.9,36.7,53.3,38.3,33.6,98,77,44,30.22,30.14,21,2,21,0.00
2012-11-22,61.3,48.6,37.0,52.0,40.1,35.2,98,75,46,30.16,29.81,30,8,30,0.04
2012-11-23,51.8,39.6,31.5,46.7,30.4,16.4,92,70,51,29.99,29.69,50,14,50,0.08
2012-11-24,33.1,30.6,28.4,16.7,14.7,12.8,56,51,45,30.08,29.99,38,13,38,0.00
2012-11-25,36.0,31.2,26.1,25.9,20.9,14.6,80,66,55,30.02,29.81,26,8,30,0.00
2012-11-26,34.3,31.8,29.5,22.8,17.7,12.7,68,56,47,30.25,29.99,24,5,24,0.00
2012-11-27,38.1,29.0,21.9,17.5,13.1,9.1,68,52,40,30.34,30.22,26,6,26,0.00
2012-11-28,39.4,30.7,24.8,21.0,15.7,11.4,60,53,46,30.28,30.16,26,6,26,0.00
2012-11-29,48.9,36.5,27.9,27.0,21.7,14.6,67,55,40,30.28,30.16,22,5,22,0.00
2012-11-30,44.6,37.4,33.8,36.7,30.0,23.1,82,74,64,30.25,30.14,17,3,17,0.00
2012-12-1,55.2,41.8,33.8,48.1,36.9,28.9,96,83,66,30.25,30.02,32,3,32,0.00
2012-12-2,55.8,52.6,49.1,54.5,49.3,43.8,96,89,65,30.11,29.93,34,6,34,0.08
2012-12-3,60.3,51.5,44.2,59.5,50.8,43.4,98,97,95,30.14,29.90,31,2,31,0.00
2012-12-4,60.3,50.4,40.6,59.7,44.8,27.4,98,81,58,30.11,29.90,35,9,35,0.24
2012-12-5,41.9,32.3,24.8,27.3,17.5,13.2,68,54,41,30.37,30.11,38,9,38,0.00
2012-12-6,38.1,31.7,24.4,29.7,23.1,17.0,81,71,56,30.34,29.96,23,4,23,0.00
2012-12-7,42.8,38.8,34.3,41.0,35.6,28.2,97,88,78,29.96,29.87,12,1,12,0.04
2012-12-8,40.6,36.5,32.9,40.1,35.2,29.7,98,95,88,30.14,29.81,28,5,28,0.16
2012-12-9,35.8,33.4,31.8,33.6,30.4,28.2,97,89,78,30.16,29.63,17,4,17,0.08
2012-12-10,38.8,35.2,30.6,38.3,31.7,18.7,98,87,61,29.84,29.60,30,8,30,0.04
2012-12-11,34.0,28.7,23.2,24.2,18.0,14.5,75,64,51,30.14,29.84,21,7,21,0.00
2012-12-12,44.4,31.2,23.0,29.7,20.5,18.1,86,66,40,30.34,30.14,26,6,26,0.00
2012-12-13,44.4,32.9,24.1,29.1,21.5,18.1,83,64,44,30.34,30.16,27,6,27,0.00
2012-12-14,52.5,36.8,30.0,32.3,25.3,21.6,81,64,43,30.22,30.14,17,4,17,0.00
2012-12-15,42.1,37.5,29.8,40.0,33.7,25.3,97,86,70,30.16,29.69,18,3,18,0.00
2012-12-16,51.8,46.6,41.7,51.3,44.4,38.8,98,92,82,29.69,29.60,33,5,33,0.12
2012-12-17,41.7,39.9,37.9,38.8,34.4,28.7,90,81,70,29.72,29.60,25,4,25,0.00
2012-12-18,43.3,36.9,31.8,30.6,27.1,21.6,87,69,49,29.75,29.63,26,7,26,0.00
2012-12-19,39.9,34.8,29.7,34.1,30.6,25.4,94,84,76,30.11,29.72,20,3,20,0.00
2012-12-20,44.8,38.5,31.3,44.1,36.4,28.1,98,92,84,30.08,29.16,31,8,37,0.75
2012-12-21,33.6,30.7,27.3,32.0,26.8,18.2,98,86,60,29.84,29.19,57,17,57,0.63
2012-12-22,33.6,29.1,25.9,20.9,17.5,14.5,74,61,52,30.05,29.84,51,14,58,0.63
2012-12-23,36.3,26.8,19.6,23.9,17.6,12.1,83,69,53,30.02,29.87,26,6,26,0.63
2012-12-24,33.1,26.7,21.0,25.3,19.9,12.1,89,75,63,29.99,29.81,26,5,26,0.63
2012-12-25,32.2,27.5,21.9,24.9,20.7,16.9,94,76,57,30.28,29.96,29,9,29,0.00
2012-12-26,29.1,27.4,24.6,25.9,22.6,19.5,97,82,68,30.25,29.84,34,10,34,0.63
2012-12-27,33.3,26.1,17.4,26.9,20.0,10.3,97,79,52,30.14,29.84,34,11,34,0.63
2012-12-28,30.7,21.3,12.7,25.3,16.1,7.3,86,80,76,30.14,29.93,12,2,12,0.63
2012-12-29,29.1,26.1,21.4,25.6,21.7,14.9,91,83,73,30.02,29.81,32,8,32,0.63
2012-12-30,28.6,23.2,14.2,24.8,17.5,8.3,89,79,69,30.25,30.02,25,7,25,0.00
2012-12-31,34.2,26.8,13.8,25.6,19.4,8.3,83,74,64,30.16,29.90,34,9,34,0.00
2013-1-1,29.1,22.0,13.8,17.6,7.9,-0.4,67,54,42,30.14,29.99,26,8,26,0.04